Location: Bacea
(45.9500°N, 22.6667°E)
Time: 17:23:11
(UTC+00:00)

Cosmos 489 Rocket - Pass Details

Date: 26 May 2022
Orbit: 952 x 983 km, 74.0° (Epoch: 29 June)

Event Time Altitude Azimuth Distance (km) Brightness Sun altitude
Rises 18:51:24 0° 267° (W) 3,629 8.3 -7.1°
Reaches altitude 10° 18:55:49 10° 297° (WNW) 2,685 8.3 -7.6°
Maximum altitude 18:58:14 12° 320° (NW) 2,522 8.3 -8.0°
Drops below altitude 10° 19:00:39 10° 343° (NNW) 2,689 7.9 -8.3°
Sets 19:05:07 0° 13° (NNE) 3,641 7.9 -8.8°
